Regional Weather Roundup
Issued by NWS Huntsville, AL

Home | Current Version | Previous Version | Text Only | Print | Product List | Glossary On
Versions: 1 2 3 4 5 6 7 8 9 10 11 12 13 14 15 16 17 18 19 20 21 22 23 24 25 26 27 28 29 30 31 32 33 34 35 36 37 38 39 40 41 42 43 44 45 46 47 48 49 50
000
ASUS44 KHUN 211610
RWRHUN

WEATHER ROUNDUP FOR THE TENNESSEE VALLEY
NATIONAL WEATHER SERVICE HUNTSVILLE AL
1100 AM CDT MON APR 21 2014

ALZ001>004-211700-
NORTHWEST ALABAMA

CITY           SKY/WX    TMP DP  RH WIND       PRES   REMARKS
COURTLAND HCN    N/A     72 N/A N/A S3          N/A
RUSSELLVILLE     N/A     73 N/A N/A MISG        N/A
SHOALS AIRPORT MOSUNNY   75  52  44 VRB7      30.11F
SHOALS TVA RES   N/A     68 N/A N/A MISG        N/A
$$

ALZ005>007-016-211700-
NORTH CENTRAL ALABAMA

CITY           SKY/WX    TMP DP  RH WIND       PRES   REMARKS
DECATUR AP     MOSUNNY   74  50  42 SW8       30.12F
HUNTSVILLE AP  PTSUNNY   75  50  41 S8        30.11F
HUN NWS/UAH      N/A     74  48  39 W5          N/A
MERIDIANVILLE  PTSUNNY   72  41  33 CALM      30.12F
REDSTONE ARSN  SUNNY     75  48  38 SW3       30.12F
VINEMONT AP    FAIR      71  53  51 S9        30.14F
$$

ALZ008>010-211700-
NORTHEAST ALABAMA

CITY           SKY/WX    TMP DP  RH WIND       PRES   REMARKS
ALBERTVILLE    SUNNY     70  55  60 S8        30.13F
FORT PAYNE     SUNNY     70  37  30 SW5       30.13F
SCOTTSBORO AP  SUNNY     72  46  40 S9        30.14F
SCOTTSBORO HCN   N/A     70 N/A N/A MISG        N/A
VALLEY HEAD      N/A     68 N/A N/A MISG        N/A
$$

TNZ076-096-097-211700-
SOUTHEASTERN MIDDLE TENNESSEE

CITY           SKY/WX    TMP DP  RH WIND       PRES   REMARKS
FAYETTEVILLE   FAIR      69  49  48 SW8       30.12F
TULLAHOMA      SUNNY     72  46  40 S7        30.13S
WINCHESTER     SUNNY     73  46  38 SE3       30.11F
$$

...SURROUNDING SITES...

CITY           SKY/WX    TMP DP  RH WIND       PRES   REMARKS
ATLANTA        PTSUNNY   66  41  40 S5        30.17F
ANNISTON       MOSUNNY   72  48  42 CALM      30.16F
BIRMINGHAM     PTSUNNY   73  52  47 S6        30.15F
CHATTANOOGA    PTSUNNY   71  40  32 SE6       30.14F
CORINTH        FAIR      75  52  43 SW9       30.09F
DALTON         SUNNY     68  43  40 SE6       30.16F
GADSDEN        NOT AVBL
GOLDEN TRNGL   MOSUNNY   72  55  56 SW8       30.14S
HALEYVILLE     FAIR      73  52  47 VRB7      30.15S
JACKSON TN     MOSUNNY   73  52  47 SW7       30.07S
LEWISBURG      FAIR      71  51  49 S6        30.11S
MEMPHIS        CLOUDY    76  54  46 SW12      30.06S
MURFREESBORO   FAIR      73  49  42 SW8       30.10S
NASHVILLE      CLOUDY    73  49  42 S6        30.09S
OXFORD MS      FAIR      73  54  49 SW8       30.10S
ROME           SUNNY     69  46  43 SE8       30.15F
SAVANNAH       MOSUNNY   73  53  49 SW12      30.10S
TUPELO         SUNNY     74  56  53 SW10      30.10F
TUSCALOOSA     SUNNY     73  58  59 CALM      30.13F
$$

...GULF COAST WEATHER...

CITY           SKY/WX    TMP DP  RH WIND       PRES   REMARKS
GULFPORT       CLOUDY    70  58  65 SE13      30.14S
PASCAGOULA     PTSUNNY   70  57  63 E10G18    30.15F
MOBILE         PTSUNNY   70  58  65 S8G17     30.15F
GULF SHORES    PTSUNNY   69  56  65 SE9       30.15F
PENSACOLA      MOSUNNY   69  57  65 SE8       30.15F
DESTIN         SUNNY     69  56  62 CALM      30.15F
PANAMA CITY    SUNNY     69  62  77 E3        30.14F
APPALACHICOLA  SUNNY     72  53  51 SE12      30.13F
$$




USA.gov is the U.S. government's official web portal to all federal, state and local government web resources and services.